TimeCEST,TemperatureF,Dew PointF,Humidity,Sea Level PressureIn,VisibilityMPH,Wind Direction,Wind SpeedMPH,Gust SpeedMPH,PrecipitationIn,Events,Conditions,WindDirDegrees,DateUTC
12:55 AM,28.4,28.4,100,29.59,-9999.0,NNW,4.6,-,N/A,Fog,Light Freezing Fog,340,2013-04-05 22:55:00
1:55 AM,28.4,26.6,93,29.59,-9999.0,North,4.6,-,N/A,Fog,Light Freezing Fog,10,2013-04-05 23:55:00
2:00 AM,28,27,95,,0,North,4.6,,,Snow,Light Snow,10,2013-04-06 00:00:00
2:55 AM,28.4,26.6,93,29.59,-9999.0,NE,11.5,-,N/A,Fog,Light Freezing Fog,50,2013-04-06 00:55:00
3:55 AM,28.4,26.6,93,29.62,-9999.0,NE,9.2,-,N/A,Fog,Light Freezing Fog,50,2013-04-06 01:55:00
4:55 AM,26.6,26.6,100,29.62,6.2,NNE,6.9,-,N/A,,Scattered Clouds,20,2013-04-06 02:55:00
5:00 AM,27,26,94,,6,NNE,6.9,,,Snow,Light Snow,20,2013-04-06 03:00:00
5:55 AM,26.6,23.0,86,29.62,6.2,NNE,12.7,-,N/A,,Scattered Clouds,30,2013-04-06 03:55:00
6:55 AM,26.6,24.8,93,29.62,6.2,ENE,10.4,-,N/A,,Scattered Clouds,60,2013-04-06 04:55:00
7:55 AM,26.6,26.6,100,29.65,0.0,NE,8.1,-,N/A,Fog,Light Freezing Fog,40,2013-04-06 05:55:00
8:00 AM,26,26,100,,0,NE,8.1,,,Fog,Heavy Fog,40,2013-04-06 06:00:00
8:55 AM,26.6,26.6,100,29.68,0.0,NNE,4.6,-,N/A,Fog,Light Freezing Fog,30,2013-04-06 06:55:00
9:55 AM,28.4,26.6,93,29.68,0.1,NNE,4.6,-,N/A,Fog,Light Freezing Fog,30,2013-04-06 07:55:00
10:55 AM,30.2,28.4,93,29.71,0.3,Variable,2.3,-,N/A,Fog,Light Freezing Fog,0,2013-04-06 08:55:00
11:00 AM,31,29,88,,0,,2.3,,,Fog,Heavy Fog,,2013-04-06 09:00:00
11:55 AM,32.0,30.2,93,29.71,0.3,Variable,1.2,-,N/A,Fog,Fog,0,2013-04-06 09:55:00
12:55 PM,33.8,28.4,81,29.74,0.2,SW,4.6,-,N/A,Fog,Fog,230,2013-04-06 10:55:00
1:55 PM,33.8,30.2,87,29.74,0.1,SSW,3.5,-,N/A,Fog,Fog,210,2013-04-06 11:55:00
2:00 PM,33,29,82,,0,SSW,3.5,,,Fog,Heavy Fog,210,2013-04-06 12:00:00
2:55 PM,33.8,28.4,81,29.74,1.2,West,5.8,-,N/A,,Mostly Cloudy,280,2013-04-06 12:55:00
3:55 PM,33.8,26.6,75,29.74,0.9,Variable,1.2,-,N/A,,Scattered Clouds,0,2013-04-06 13:55:00
4:55 PM,33.8,28.4,81,29.74,0.2,SSE,4.6,-,N/A,Fog,Fog,150,2013-04-06 14:55:00
5:00 PM,34,28,71,,0,SSE,4.6,,,Fog,Heavy Fog,150,2013-04-06 15:00:00
5:55 PM,33.8,28.4,81,29.74,6.2,Variable,3.5,-,N/A,,Scattered Clouds,0,2013-04-06 15:55:00
6:55 PM,32.0,24.8,75,29.74,6.2,SSE,4.6,-,N/A,,Scattered Clouds,150,2013-04-06 16:55:00
7:55 PM,32.0,26.6,80,29.77,0.2,South,5.8,-,N/A,Fog,Light Freezing Fog,190,2013-04-06 17:55:00
8:00 PM,32,26,72,,0,South,5.8,,,Fog,Heavy Fog,190,2013-04-06 18:00:00
8:55 PM,30.2,26.6,86,29.77,0.5,South,3.5,-,N/A,Fog,Light Freezing Fog,190,2013-04-06 18:55:00
9:55 PM,30.2,28.4,93,29.80,0.2,SSW,8.1,-,N/A,Fog,Light Freezing Fog,200,2013-04-06 19:55:00
10:55 PM,30.2,28.4,93,29.80,0.0,South,11.5,-,N/A,Fog,Light Freezing Fog,190,2013-04-06 20:55:00
11:00 PM,29,29,100,,0,South,11.5,,,Fog,Heavy Fog,190,2013-04-06 21:00:00
11:55 PM,28.4,28.4,100,29.80,0.3,SSW,9.2,-,N/A,Fog,Light Freezing Fog,200,2013-04-06 21:55:00